PCSAT (NO-44) (26931 NORAD) Tracking and Keplerian Element Data

This shows tracking and keplerian element data for the satellite.

Feedback or suggestion? Click here.




ElementValue
Catalog26931
NamePCSAT (NO-44)
Epoch Orbit17982
Epoch Day125.25166017
Epoch Year2024
RAAN85.0545
Inclination67.0502
Eccentricity0.0006456
Argument of Perigee282.0166
Mean Anonmoly78.0212
Mean Motion14.3120141
Decay Rate3.16E-06
L11 26931U 01043C 24125.25166017 .00000316 00000+0 15094-3 0 9992
L22 26931 67.0502 85.0545 0006456 282.0166 78.0212 14.31201410179820



Live tracking and technical data element details for PCSAT (NO-44) (NORAD 26931). PCSAT (NO-44) can be tracked NOW for your location showing map with azimuth and elevation plus other details from your city location.







IsCatalogInMostPopularTable: catalog: 26931, numindb: 1310
Update: records affected: 1



GetName: 26931 PCSAT (NO-44)

Hit Count: updated at: Thu, 30 May 2024 16:01:49 GMT